Location: *
(45.1961°N, 1.9694°E)
Time: 06:03:36
(UTC+00:00)

Spot 2 Rocket - Pass Details

Date: 25 August 2019
Orbit: 756 x 773 km, 98.6° (Epoch: 21 September)

Event Time Altitude Azimuth Distance (km) Brightness Sun altitude
Exits shadow 20:13:44 23° 141° (SE) 1,602 4.6 -15.4°
Maximum altitude 20:16:50 57° 71° (ENE) 903 3.6 -15.8°
Drops below altitude 10° 20:21:48 10° 354° (N) 2,311 6.5 -16.6°
Sets 20:24:08 0° 350° (N) 3,239 7.5 -16.9°
